Location: Mexico
(19.4000°N, 99.1500°W)
Time: 00:47:24
(UTC-06:00)

ISS - Pass Details

Date: 25 July 2017
Orbit: 400 x 408 km, 51.6° (Epoch: 21 July)

Event Time Altitude Azimuth Distance (km) Brightness Sun altitude
Rises 19:39:45 0° 242° (WSW) 2,299 0.6 -6.1°
Reaches altitude 10° 19:42:07 10° 258° (WSW) 1,441 -0.1 -6.7°
Maximum altitude 19:44:43 22° 312° (NW) 917 -1.0 -7.2°
Drops below altitude 10° 19:47:20 10° 7° (N) 1,442 -0.8 -7.8°
Sets 19:49:42 0° 23° (NNE) 2,300 0.0 -8.3°
